This demonstration page uses our WeatherBlox Daily Observations layout. Learn more.

Left ArrowRight Arrow

Hourly Observations for November 18, 2022

Temp ( °F °C ) Dew Point ( °F °C ) Humidity (%) Winds ( mph kmh ) Pressure ( in mb ) Visibility ( mi km ) Precip ( " mm )
12:53 am 00:53 Clear 40 4.4 24 -4.4 53 53 ESE 10 17 30.16 1021 10 16 0.00 0.00
1:53 am 01:53 Clear 38 3.3 25 -3.9 59 59 ESE 9 15 30.17 1022 10 16 0.00 0.00
2:53 am 02:53 Clear 38 3.3 25 -3.9 59 59 ESE 8 13 30.16 1021 10 16 0.00 0.00
3:53 am 03:53 Clear 37 2.8 25 -3.9 61 61 E 5 7 30.15 1021 10 16 0.00 0.00
4:53 am 04:53 Clear 34 1.1 24 -4.4 67 67 NNE 12 19 30.19 1022 10 16 0.00 0.00
5:53 am 05:53 Clear 33 0.6 23 -5 66 66 NNE 13 20 30.22 1023 10 16 0.00 0.00
6:53 am 06:53 Clear 31 -0.6 24 -4.4 75 75 NNE 16 26 30.24 1024 10 16 0.00 0.00
7:53 am 07:53 Sunny 31 -0.6 23 -5 72 72 NNE 14 22 30.27 1025 10 16 0.00 0.00
8:53 am 08:53 Mostly Sunny 33 0.6 24 -4.4 69 69 NNE 15 24 30.29 1026 10 16 0.00 0.00
9:53 am 09:53 Partly Cloudy 36 2.2 25 -3.9 64 64 NE 13 20 30.30 1026 10 16 0.00 0.00
10:53 am 10:53 Sunny 37 2.8 24 -4.4 59 59 NE 12 19 30.30 1026 10 16 0.00 0.00
11:53 am 11:53 Sunny 41 5 24 -4.4 51 51 ENE 12 19 30.29 1026 10 16 0.00 0.00
12:53 pm 12:53 Sunny 43 6.1 24 -4.4 47 47 NE 13 20 30.25 1025 10 16 0.00 0.00
1:53 pm 13:53 Sunny 43 6.1 24 -4.4 47 47 ENE 7 11 30.22 1023 10 16 0.00 0.00
2:53 pm 14:53 Sunny 46 7.8 24 -4.4 42 42 E 8 13 30.18 1022 10 16 0.00 0.00
3:53 pm 15:53 Sunny 47 8.3 25 -3.9 42 42 E 10 17 30.18 1022 10 16 0.00 0.00
4:53 pm 16:53 Sunny 46 7.8 25 -3.9 43 43 E 10 17 30.19 1023 10 16 0.00 0.00
5:53 pm 17:53 Partly Cloudy 43 6.1 25 -3.9 49 49 ENE 12 19 30.22 1023 10 16 0.00 0.00
6:53 pm 18:53 Cloudy 41 5 25 -3.9 52 52 E 15 24 30.25 1025 10 16 0.00 0.00
7:53 pm 19:53 Cloudy 39 3.9 24 -4.4 55 55 E 13 20 30.28 1026 10 16 0.00 0.00
8:53 pm 20:53 Cloudy 38 3.3 24 -4.4 57 57 ENE 12 19 30.30 1026 10 16 0.00 0.00
9:53 pm 21:53 Cloudy 37 2.8 25 -3.9 61 61 E 15 24 30.31 1027 10 16 0.00 0.00
10:33 pm 22:33 Cloudy 36 2.2 26 -3.3 67 67 ENE 13 20 30.40 1029 10 16 0.00 0.00
10:53 pm 22:53 Cloudy 35 1.7 26 -3.3 69 69 ENE 13 20 30.32 1027 10 16 0.00 0.00
11:53 pm 23:53 Cloudy 34 1.1 27 -2.8 75 75 ENE 13 20 30.33 1027 10 16 0.00 0.00

Powered by AerisWeather